�������l�o���
Date,Time,MP-1(��Sv/h),MP-2(��Sv/h),MP-3(��Sv/h),MP-4(��Sv/h),MP-5(��Sv/h),MP-6(��Sv/h),MP-7(��Sv/h),MP-8(��Sv/h),����,����(m/s),���J
2024/05/11,00:00,0.505,0.768,0.484,0.956,0.691,0.313,0.549,0.516,��,5.7,��
2024/05/11,00:10,0.503,0.767,0.485,0.957,0.690,0.312,0.550,0.514,��,7.6,��
2024/05/11,00:20,0.503,0.767,0.485,0.959,0.692,0.313,0.548,0.513,��,7.2,��
2024/05/11,00:30,0.503,0.765,0.486,0.958,0.690,0.312,0.549,0.513,��,6.8,��
2024/05/11,00:40,0.502,0.766,0.485,0.956,0.691,0.312,0.550,0.514,��쐼,7.0,��
2024/05/11,00:50,0.502,0.767,0.484,0.958,0.691,0.313,0.548,0.515,��쐼,6.4,��
2024/05/11,01:00,0.504,0.766,0.484,0.958,0.691,0.312,0.548,0.514,�쐼,6.4,��
2024/05/11,01:10,0.505,0.767,0.484,0.959,0.689,0.312,0.549,0.515,��쐼,4.6,��
2024/05/11,01:20,0.503,0.767,0.485,0.958,0.691,0.313,0.549,0.514,��,3.8,��
2024/05/11,01:30,0.503,0.766,0.483,0.958,0.692,0.314,0.551,0.515,��쐼,4.1,��
2024/05/11,01:40,0.503,0.768,0.483,0.958,0.691,0.312,0.549,0.514,��,4.2,��
2024/05/11,01:50,0.502,0.766,0.483,0.958,0.689,0.313,0.550,0.515,��,5.2,��
2024/05/11,02:00,0.504,0.765,0.483,0.957,0.691,0.312,0.550,0.513,��,5.6,��
2024/05/11,02:10,0.502,0.768,0.484,0.958,0.691,0.312,0.550,0.515,��,5.3,��
2024/05/11,02:20,0.503,0.765,0.484,0.957,0.691,0.313,0.549,0.514,��,5.1,��
2024/05/11,02:30,0.501,0.767,0.484,0.959,0.691,0.312,0.549,0.514,��,5.4,��
2024/05/11,02:40,0.503,0.768,0.483,0.958,0.691,0.313,0.549,0.514,��,4.3,��
2024/05/11,02:50,0.504,0.765,0.485,0.957,0.691,0.313,0.549,0.516,��,3.3,��
2024/05/11,03:00,0.502,0.768,0.483,0.957,0.691,0.313,0.551,0.514,��,3.3,��
2024/05/11,03:10,0.503,0.767,0.485,0.956,0.690,0.314,0.549,0.514,��쐼,2.6,��
2024/05/11,03:20,0.502,0.767,0.484,0.958,0.692,0.312,0.548,0.514,��,2.8,��
2024/05/11,03:30,0.503,0.766,0.483,0.958,0.691,0.313,0.548,0.515,��,3.0,��
2024/05/11,03:40,0.502,0.765,0.483,0.958,0.691,0.312,0.549,0.514,��,3.7,��
2024/05/11,03:50,0.502,0.767,0.483,0.958,0.691,0.313,0.549,0.514,��,4.2,��
2024/05/11,04:00,0.504,0.768,0.483,0.957,0.690,0.313,0.549,0.514,��,4.5,��
2024/05/11,04:10,0.503,0.769,0.484,0.957,0.692,0.313,0.548,0.515,��,4.4,��
2024/05/11,04:20,0.502,0.766,0.485,0.957,0.689,0.313,0.548,0.515,��,4.8,��
2024/05/11,04:30,0.502,0.767,0.483,0.958,0.691,0.312,0.550,0.514,��,4.5,��
2024/05/11,04:40,0.504,0.768,0.484,0.958,0.691,0.313,0.550,0.514,��,4.9,��
2024/05/11,04:50,0.504,0.765,0.484,0.959,0.692,0.313,0.547,0.513,��,3.9,��
2024/05/11,05:00,0.504,0.767,0.483,0.959,0.691,0.312,0.548,0.514,��쐼,2.6,��
2024/05/11,05:10,0.505,0.766,0.483,0.959,0.690,0.313,0.549,0.515,��쐼,2.8,��
2024/05/11,05:20,0.503,0.765,0.485,0.957,0.690,0.312,0.548,0.515,��쐼,4.1,��
2024/05/11,05:30,0.503,0.768,0.482,0.957,0.691,0.314,0.551,0.514,��쐼,4.4,��
2024/05/11,05:40,0.503,0.765,0.484,0.957,0.690,0.312,0.549,0.514,��쐼,4.6,��
2024/05/11,05:50,0.504,0.767,0.484,0.959,0.692,0.312,0.549,0.515,��,5.2,��
2024/05/11,06:00,0.502,0.766,0.483,0.958,0.691,0.314,0.550,0.512,��,3.8,��
2024/05/11,06:10,0.501,0.767,0.485,0.958,0.691,0.313,0.550,0.514,��,3.3,��
2024/05/11,06:20,0.505,0.767,0.484,0.958,0.690,0.313,0.551,0.515,��,3.8,��
2024/05/11,06:30,0.503,0.768,0.483,0.959,0.692,0.313,0.552,0.514,��,3.9,��
2024/05/11,06:40,0.502,0.767,0.484,0.956,0.694,0.313,0.551,0.514,��,4.9,��
2024/05/11,06:50,0.504,0.767,0.484,0.959,0.692,0.312,0.552,0.513,��,5.3,��
2024/05/11,07:00,0.505,0.766,0.482,0.958,0.692,0.312,0.552,0.516,��,4.6,��
2024/05/11,07:10,0.504,0.766,0.483,0.957,0.689,0.311,0.549,0.513,��,3.2,��
2024/05/11,07:20,0.502,0.763,0.483,0.959,0.689,0.312,0.551,0.514,��,4.4,��
2024/05/11,07:30,0.503,0.767,0.485,0.958,0.691,0.311,0.552,0.515,��,4.1,��
2024/05/11,07:40,0.502,0.765,0.484,0.957,0.688,0.312,0.550,0.514,��,3.7,��
2024/05/11,07:50,0.501,0.766,0.485,0.959,0.691,0.312,0.550,0.515,��,3.9,��
2024/05/11,08:00,0.501,0.765,0.484,0.960,0.691,0.311,0.551,0.513,��,6.4,��
2024/05/11,08:10,0.502,0.763,0.484,0.958,0.691,0.311,0.549,0.514,��,6.4,��
2024/05/11,08:20,0.501,0.767,0.483,0.956,0.690,0.311,0.549,0.512,��,6.4,��
2024/05/11,08:30,0.501,0.767,0.485,0.959,0.691,0.312,0.551,0.512,��,6.2,��
2024/05/11,08:40,0.501,0.764,0.483,0.960,0.691,0.311,0.549,0.512,��,6.5,��
2024/05/11,08:50,0.502,0.766,0.483,0.961,0.690,0.310,0.548,0.512,��,5.9,��
2024/05/11,09:00,0.501,0.764,0.484,0.958,0.690,0.311,0.549,0.511,��쓌,6.4,��
2024/05/11,09:10,0.501,0.764,0.482,0.961,0.687,0.312,0.550,0.512,��쓌,8.8,��
2024/05/11,09:20,0.501,0.766,0.481,0.961,0.689,0.311,0.548,0.512,��,7.8,��
2024/05/11,09:30,0.502,0.766,0.481,0.958,0.689,0.311,0.549,0.511,��,4.9,��
2024/05/11,09:40,0.502,0.765,0.482,0.959,0.688,0.312,0.548,0.511,��,5.7,��
2024/05/11,09:50,0.502,0.766,0.483,0.962,0.689,0.312,0.549,0.513,��,6.6,��
2024/05/11,10:00,0.502,0.767,0.483,0.959,0.691,0.312,0.549,0.512,��,8.3,��
2024/05/11,10:10,0.502,0.766,0.484,0.960,0.690,0.312,0.550,0.512,��,9.2,��
2024/05/11,10:20,0.501,0.768,0.483,0.960,0.689,0.312,0.549,0.513,��쓌,10.7,��
2024/05/11,10:30,0.503,0.766,0.482,0.961,0.693,0.313,0.551,0.513,��,11.1,��
2024/05/11,10:40,0.502,0.766,0.484,0.959,0.690,0.312,0.550,0.513,��,10.0,��
2024/05/11,10:50,0.503,0.768,0.484,0.960,0.692,0.311,0.550,0.513,��,8.6,��
2024/05/11,11:00,0.504,0.765,0.484,0.961,0.692,0.312,0.548,0.513,��,9.3,��
2024/05/11,11:10,0.503,0.769,0.485,0.959,0.692,0.312,0.550,0.512,��쓌,9.6,��
2024/05/11,11:20,0.504,0.768,0.483,0.958,0.693,0.313,0.550,0.512,��쓌,8.6,��
2024/05/11,11:30,0.504,0.769,0.484,0.957,0.691,0.312,0.548,0.512,��,9.2,��
2024/05/11,11:40,0.504,0.769,0.487,0.957,0.693,0.313,0.550,0.511,��쓌,9.6,��
2024/05/11,11:50,0.504,0.769,0.485,0.959,0.694,0.312,0.551,0.512,��쓌,9.7,��
2024/05/11,12:00,0.504,0.769,0.485,0.958,0.693,0.314,0.548,0.514,��,10.5,��
2024/05/11,12:10,0.504,0.768,0.486,0.960,0.693,0.312,0.551,0.512,��쓌,10.0,��
2024/05/11,12:20,0.504,0.768,0.485,0.960,0.695,0.312,0.551,0.513,��,11.3,��
2024/05/11,12:30,0.502,0.770,0.484,0.958,0.694,0.314,0.552,0.514,��,12.4,��
2024/05/11,12:40,0.505,0.770,0.486,0.959,0.694,0.313,0.551,0.513,��,11.6,��
2024/05/11,12:50,0.505,0.769,0.484,0.960,0.697,0.313,0.551,0.514,��,11.8,��
2024/05/11,13:00,0.503,0.770,0.486,0.959,0.695,0.313,0.550,0.515,��쓌,10.6,��
2024/05/11,13:10,0.506,0.772,0.486,0.959,0.695,0.313,0.549,0.514,��쓌,12.7,��
2024/05/11,13:20,0.506,0.770,0.486,0.959,0.697,0.313,0.549,0.514,��쓌,13.5,��
2024/05/11,13:30,0.506,0.769,0.486,0.958,0.694,0.313,0.548,0.514,��쓌,14.9,��
2024/05/11,13:40,0.505,0.769,0.486,0.958,0.697,0.313,0.550,0.513,��쓌,13.6,��
2024/05/11,13:50,0.507,0.769,0.485,0.960,0.695,0.313,0.549,0.513,��쓌,12.5,��
2024/05/11,14:00,0.504,0.769,0.486,0.959,0.696,0.314,0.549,0.513,��쓌,12.7,��
2024/05/11,14:10,0.505,0.768,0.484,0.958,0.696,0.313,0.550,0.513,��쓌,15.5,��
2024/05/11,14:20,0.504,0.771,0.484,0.962,0.695,0.314,0.548,0.516,��,14.1,��
2024/05/11,14:30,0.507,0.771,0.486,0.961,0.695,0.313,0.549,0.513,��쓌,14.1,��
2024/05/11,14:40,0.506,0.771,0.483,0.962,0.695,0.313,0.550,0.514,��쓌,16.1,��
2024/05/11,14:50,0.505,0.771,0.485,0.962,0.698,0.312,0.549,0.514,��,14.7,��
2024/05/11,15:00,0.504,0.772,0.487,0.963,0.697,0.314,0.551,0.514,��쓌,14.7,��
2024/05/11,15:10,0.505,0.770,0.486,0.961,0.698,0.312,0.550,0.512,��,13.6,��
2024/05/11,15:20,0.505,0.770,0.484,0.962,0.698,0.313,0.549,0.512,��쓌,12.0,��
2024/05/11,15:30,0.504,0.770,0.486,0.963,0.697,0.312,0.548,0.514,��쓌,12.5,��
2024/05/11,15:40,0.504,0.772,0.485,0.961,0.698,0.312,0.550,0.513,��,13.0,��
2024/05/11,15:50,0.505,0.771,0.484,0.963,0.697,0.313,0.550,0.512,��쓌,13.3,��
2024/05/11,16:00,0.505,0.770,0.486,0.962,0.698,0.314,0.550,0.513,��,10.8,��
2024/05/11,16:10,0.505,0.770,0.484,0.960,0.697,0.314,0.550,0.513,��쓌,11.8,��
2024/05/11,16:20,0.504,0.771,0.485,0.963,0.698,0.313,0.550,0.512,��쓌,13.0,��
2024/05/11,16:30,0.506,0.771,0.486,0.962,0.698,0.313,0.549,0.513,��,12.4,��
2024/05/11,16:40,0.506,0.771,0.484,0.963,0.698,0.313,0.548,0.513,��,12.4,��
2024/05/11,16:50,0.503,0.770,0.485,0.962,0.696,0.313,0.549,0.513,��,10.5,��
2024/05/11,17:00,0.505,0.771,0.486,0.962,0.697,0.312,0.548,0.514,��,8.8,��
2024/05/11,17:10,0.503,0.770,0.486,0.962,0.696,0.313,0.552,0.514,��,8.9,��
2024/05/11,17:20,0.505,0.770,0.486,0.965,0.699,0.313,0.550,0.515,��,8.5,��
2024/05/11,17:30,0.506,0.771,0.485,0.965,0.698,0.312,0.550,0.515,��,9.6,��
2024/05/11,17:40,0.503,0.769,0.484,0.963,0.696,0.312,0.549,0.513,��쓌,8.1,��
2024/05/11,17:50,0.504,0.771,0.487,0.962,0.696,0.314,0.549,0.513,��,8.5,��
2024/05/11,18:00,0.504,0.770,0.484,0.963,0.697,0.312,0.549,0.514,��,10.2,��
2024/05/11,18:10,0.505,0.769,0.486,0.966,0.696,0.313,0.549,0.514,��,8.4,��
2024/05/11,18:20,0.505,0.773,0.483,0.964,0.695,0.312,0.549,0.515,��,9.0,��
2024/05/11,18:30,0.506,0.771,0.485,0.966,0.695,0.312,0.549,0.516,��,9.2,��
2024/05/11,18:40,0.504,0.772,0.483,0.967,0.698,0.313,0.549,0.515,��,8.2,��
2024/05/11,18:50,0.505,0.774,0.485,0.965,0.698,0.314,0.550,0.515,��,7.9,��
2024/05/11,19:00,0.506,0.775,0.485,0.967,0.700,0.313,0.548,0.514,��,7.9,��
2024/05/11,19:10,0.506,0.775,0.485,0.965,0.699,0.313,0.549,0.515,��,7.1,��
2024/05/11,19:20,0.506,0.775,0.487,0.965,0.699,0.313,0.549,0.516,��,7.3,��
2024/05/11,19:30,0.505,0.774,0.488,0.966,0.699,0.314,0.552,0.515,��,7.7,��
2024/05/11,19:40,0.506,0.775,0.487,0.968,0.700,0.313,0.552,0.514,��,7.3,��
2024/05/11,19:50,0.507,0.777,0.486,0.968,0.698,0.313,0.551,0.517,��,7.5,��
2024/05/11,20:00,0.507,0.774,0.485,0.966,0.697,0.313,0.552,0.515,��,8.0,��
2024/05/11,20:10,0.506,0.774,0.485,0.966,0.699,0.314,0.551,0.515,��,7.5,��
2024/05/11,20:20,0.506,0.775,0.486,0.966,0.700,0.313,0.552,0.516,��,8.3,��
2024/05/11,20:30,0.507,0.772,0.487,0.966,0.700,0.313,0.552,0.515,��,8.5,��
2024/05/11,20:40,0.506,0.774,0.485,0.965,0.698,0.314,0.551,0.514,��,9.0,��
2024/05/11,20:50,0.506,0.775,0.485,0.965,0.701,0.314,0.550,0.514,��,9.4,��
2024/05/11,21:00,0.508,0.774,0.488,0.966,0.698,0.314,0.551,0.516,��,8.1,��
2024/05/11,21:10,0.506,0.774,0.486,0.967,0.700,0.313,0.550,0.514,��,8.3,��
2024/05/11,21:20,0.507,0.772,0.486,0.966,0.698,0.313,0.552,0.516,��,8.2,��
2024/05/11,21:30,0.505,0.775,0.486,0.964,0.700,0.313,0.551,0.515,��,8.3,��
2024/05/11,21:40,0.507,0.773,0.486,0.967,0.699,0.313,0.552,0.515,��,9.2,��
2024/05/11,21:50,0.504,0.774,0.486,0.964,0.700,0.314,0.551,0.516,��,8.5,��
2024/05/11,22:00,0.507,0.772,0.487,0.967,0.699,0.314,0.552,0.514,��,7.8,��
2024/05/11,22:10,0.507,0.774,0.486,0.966,0.700,0.312,0.552,0.516,��,8.2,��
2024/05/11,22:20,0.507,0.773,0.487,0.965,0.698,0.313,0.551,0.514,��,9.1,��
2024/05/11,22:30,0.507,0.774,0.485,0.965,0.699,0.314,0.552,0.514,��,9.1,��
2024/05/11,22:40,0.508,0.774,0.487,0.965,0.703,0.312,0.551,0.515,��,10.2,��
2024/05/11,22:50,0.507,0.774,0.487,0.962,0.701,0.313,0.551,0.514,��,10.0,��
2024/05/11,23:00,0.507,0.772,0.486,0.967,0.699,0.314,0.551,0.514,��,9.5,��
2024/05/11,23:10,0.506,0.774,0.486,0.967,0.697,0.313,0.552,0.514,��,9.3,��
2024/05/11,23:20,0.506,0.774,0.485,0.965,0.699,0.313,0.550,0.514,��,9.4,��
2024/05/11,23:30,0.507,0.773,0.487,0.966,0.701,0.313,0.551,0.516,��,8.9,��
2024/05/11,23:40,0.505,0.774,0.486,0.965,0.701,0.312,0.552,0.515,��,9.0,��
2024/05/11,23:50,0.506,0.772,0.486,0.967,0.699,0.313,0.550,0.514,��,8.8,��
